• Em Portugal
  • Lista de países
  • Para 7 dias
  • Temperatura da água
  • Mapas de satélite
  • Mapa do tempo
  • Widgets de tempo
  • user-avatar
    Iniciar Sessão

    Previsão horária em Chernogryazka

    Hoje, 28 Maio, Segunda-feira

    Tempo Temperatura Precipitação Vento Pressão Humidade
    00:00 +12°C° 0 mm 2 m/s 747 mmHg 83%
    01:00 +12°C° 0 mm 2 m/s 748 mmHg 85%
    02:00 +10°C° 0 mm 2 m/s 748 mmHg 87%
    03:00 +12°C° 0 mm 2 m/s 748 mmHg 87%
    04:00 +12°C° 0 mm 2 m/s 748 mmHg 87%
    05:00 +13°C° 0 mm 2 m/s 748 mmHg 88%
    06:00 +15°C° 0 mm 2 m/s 748 mmHg 83%
    07:00 +17°C° 0 mm 3 m/s 749 mmHg 79%
    08:00 +18°C° 0 mm 3 m/s 749 mmHg 74%
    09:00 +19°C° 0 mm 3 m/s 749 mmHg 70%
    10:00 +20°C° 0 mm 4 m/s 749 mmHg 66%
    11:00 +21°C° 0 mm 4 m/s 750 mmHg 62%
    12:00 +21°C° 0 mm 4 m/s 750 mmHg 60%
    13:00 +21°C° 0 mm 4 m/s 750 mmHg 57%
    14:00 +22°C° 0 mm 5 m/s 750 mmHg 55%
    15:00 +21°C° 0 mm 4 m/s 750 mmHg 57%
    16:00 +20°C° 0 mm 4 m/s 750 mmHg 60%
    17:00 +20°C° 0 mm 4 m/s 750 mmHg 62%
    18:00 +17°C° 0 mm 3 m/s 750 mmHg 66%
    19:00 +14°C° 0 mm 3 m/s 750 mmHg 70%
    20:00 +12°C° 0 mm 3 m/s 751 mmHg 75%
    21:00 +11°C° 0 mm 3 m/s 751 mmHg 74%
    22:00 +10°C° 0 mm 3 m/s 752 mmHg 74%
    23:00 +9°C° 0 mm 3 m/s 752 mmHg 74%

    Amanhã, 29 Maio, Terça-feira

    Tempo Temperatura Precipitação Vento Pressão Humidade
    00:00 +9°C° 0 mm 2 m/s 752 mmHg 73%
    01:00 +8°C° 0 mm 2 m/s 753 mmHg 72%
    02:00 +7°C° 0 mm 2 m/s 753 mmHg 72%
    03:00 +8°C° 0 mm 2 m/s 753 mmHg 73%
    04:00 +8°C° 0 mm 2 m/s 753 mmHg 74%
    05:00 +8°C° 0 mm 2 m/s 753 mmHg 74%
    06:00 +10°C° 0 mm 2 m/s 753 mmHg 69%
    07:00 +13°C° 0 mm 2 m/s 753 mmHg 63%
    08:00 +15°C° 0 mm 2 m/s 753 mmHg 58%
    09:00 +18°C° 0 mm 1 m/s 753 mmHg 54%
    10:00 +19°C° 0 mm 1 m/s 752 mmHg 50%
    11:00 +20°C° 0 mm 1 m/s 752 mmHg 47%
    12:00 +21°C° 0 mm 1 m/s 752 mmHg 46%
    13:00 +21°C° 0 mm 1 m/s 751 mmHg 45%
    14:00 +22°C° 0 mm 1 m/s 751 mmHg 44%
    15:00 +22°C° 0 mm 1 m/s 750 mmHg 48%
    16:00 +21°C° 0 mm 1 m/s 749 mmHg 52%
    17:00 +20°C° 0 mm 2 m/s 749 mmHg 55%
    18:00 +18°C° 0 mm 2 m/s 748 mmHg 62%
    19:00 +16°C° 0 mm 2 m/s 748 mmHg 68%
    20:00 +14°C° 0 mm 2 m/s 748 mmHg 74%
    21:00 +14°C° 0 mm 2 m/s 747 mmHg 77%
    22:00 +12°C° 0 mm 3 m/s 747 mmHg 79%
    23:00 +11°C° 0 mm 3 m/s 747 mmHg 82%

    Depois de amanhã, 30 Maio, Quarta-feira

    Tempo Temperatura Precipitação Vento Pressão Humidade
    00:00 +11°C° 0 mm 3 m/s 747 mmHg 83%
    01:00 +10°C° 0 mm 3 m/s 747 mmHg 85%
    02:00 +10°C° 0 mm 3 m/s 746 mmHg 87%
    03:00 +11°C° 0 mm 3 m/s 746 mmHg 86%
    04:00 +11°C° 0 mm 3 m/s 746 mmHg 85%
    05:00 +12°C° 0 mm 4 m/s 745 mmHg 84%
    06:00 +14°C° 0 mm 4 m/s 745 mmHg 80%
    07:00 +15°C° 0 mm 4 m/s 744 mmHg 76%
    08:00 +17°C° 0 mm 5 m/s 744 mmHg 72%
    09:00 +20°C° 0 mm 5 m/s 743 mmHg 69%
    10:00 +21°C° 0 mm 5 m/s 743 mmHg 66%
    11:00 +23°C° 0 mm 5 m/s 742 mmHg 63%
    12:00 +23°C° 0,1 mm 6 m/s 742 mmHg 63%
    13:00 +24°C° 0,1 mm 6 m/s 741 mmHg 63%
    14:00 +24°C° 0,1 mm 6 m/s 741 mmHg 63%
    15:00 +24°C° 0,5 mm 6 m/s 741 mmHg 68%
    16:00 +23°C° 0,5 mm 5 m/s 740 mmHg 74%
    17:00 +22°C° 0,5 mm 5 m/s 740 mmHg 80%
    18:00 +21°C° 0,2 mm 5 m/s 739 mmHg 84%
    19:00 +20°C° 0,2 mm 4 m/s 739 mmHg 88%
    20:00 +19°C° 0,2 mm 4 m/s 739 mmHg 92%
    21:00 +18°C° 0 mm 4 m/s 738 mmHg 93%
    22:00 +18°C° 0 mm 4 m/s 738 mmHg 94%
    23:00 +17°C° 0 mm 3 m/s 737 mmHg 95%

    31 Maio, Quinta-feira

    Tempo Temperatura Precipitação Vento Pressão Humidade
    00:00 +17°C° 0 mm 3 m/s 737 mmHg 95%
    01:00 +17°C° 0 mm 3 m/s 737 mmHg 95%
    02:00 +16°C° 0 mm 3 m/s 737 mmHg 95%
    03:00 +16°C° 0 mm 3 m/s 736 mmHg 95%
    04:00 +16°C° 0 mm 3 m/s 736 mmHg 95%
    05:00 +16°C° 0 mm 3 m/s 736 mmHg 95%
    06:00 +17°C° 0,2 mm 3 m/s 736 mmHg 91%
    07:00 +18°C° 0,2 mm 4 m/s 736 mmHg 86%
    08:00 +18°C° 0,2 mm 4 m/s 737 mmHg 82%
    09:00 +17°C° 0,3 mm 5 m/s 737 mmHg 77%
    10:00 +17°C° 0,3 mm 5 m/s 737 mmHg 71%
    11:00 +19°C° 0,3 mm 6 m/s 737 mmHg 66%
    12:00 +19°C° 0 mm 6 m/s 737 mmHg 63%
    13:00 +19°C° 0 mm 5 m/s 737 mmHg 59%
    14:00 +20°C° 0 mm 5 m/s 738 mmHg 56%
    15:00 +19°C° 0 mm 5 m/s 738 mmHg 58%
    16:00 +17°C° 0 mm 5 m/s 738 mmHg 61%
    17:00 +18°C° 0 mm 4 m/s 738 mmHg 63%
    18:00 +15°C° 0 mm 4 m/s 739 mmHg 65%
    19:00 +14°C° 0 mm 4 m/s 739 mmHg 66%
    20:00 +13°C° 0 mm 4 m/s 739 mmHg 67%
    21:00 +12°C° 0 mm 4 m/s 740 mmHg 66%
    22:00 +11°C° 0 mm 4 m/s 740 mmHg 64%
    23:00 +9°C° 0 mm 5 m/s 741 mmHg 63%

    1 Junho, Sexta-feira

    Tempo Temperatura Precipitação Vento Pressão Humidade
    00:00 +8°C° 0 mm 4 m/s 741 mmHg 63%
    01:00 +7°C° 0 mm 4 m/s 741 mmHg 63%
    02:00 +6°C° 0 mm 4 m/s 741 mmHg 63%
    03:00 +6°C° 0 mm 4 m/s 742 mmHg 65%
    04:00 +6°C° 0 mm 4 m/s 742 mmHg 68%
    05:00 +6°C° 0 mm 5 m/s 742 mmHg 70%
    06:00 +7°C° 0 mm 5 m/s 742 mmHg 66%
    07:00 +9°C° 0 mm 5 m/s 743 mmHg 63%
    08:00 +10°C° 0 mm 6 m/s 743 mmHg 60%
    09:00 +11°C° 0 mm 6 m/s 743 mmHg 57%
    10:00 +13°C° 0 mm 6 m/s 743 mmHg 55%
    11:00 +13°C° 0 mm 6 m/s 743 mmHg 52%
    12:00 +14°C° 0 mm 6 m/s 743 mmHg 52%
    13:00 +14°C° 0 mm 6 m/s 743 mmHg 52%
    14:00 +14°C° 0 mm 6 m/s 743 mmHg 52%
    15:00 +13°C° 0 mm 5 m/s 743 mmHg 55%
    16:00 +13°C° 0 mm 5 m/s 743 mmHg 59%
    17:00 +12°C° 0 mm 4 m/s 744 mmHg 62%
    18:00 +11°C° 0 mm 4 m/s 744 mmHg 63%
    19:00 +10°C° 0 mm 4 m/s 744 mmHg 63%
    20:00 +10°C° 0 mm 4 m/s 745 mmHg 64%
    21:00 +8°C° 0 mm 4 m/s 745 mmHg 64%
    22:00 +7°C° 0 mm 4 m/s 745 mmHg 64%
    23:00 +6°C° 0 mm 5 m/s 745 mmHg 64%

    2 Junho, Sábado

    Tempo Temperatura Precipitação Vento Pressão Humidade
    00:00 +6°C° 0 mm 5 m/s 746 mmHg 66%
    01:00 +5°C° 0 mm 5 m/s 746 mmHg 67%
    02:00 +4°C° 0 mm 4 m/s 746 mmHg 68%
    03:00 +4°C° 0 mm 4 m/s 746 mmHg 69%
    04:00 +5°C° 0 mm 4 m/s 746 mmHg 71%
    05:00 +5°C° 0 mm 4 m/s 747 mmHg 72%
    06:00 +6°C° 0 mm 5 m/s 747 mmHg 67%
    07:00 +8°C° 0 mm 5 m/s 747 mmHg 62%
    08:00 +10°C° 0 mm 6 m/s 747 mmHg 57%
    09:00 +11°C° 0 mm 6 m/s 747 mmHg 55%
    10:00 +13°C° 0 mm 6 m/s 747 mmHg 54%
    11:00 +14°C° 0 mm 6 m/s 747 mmHg 52%
    12:00 +14°C° 0 mm 6 m/s 746 mmHg 52%
    13:00 +15°C° 0 mm 5 m/s 746 mmHg 53%
    14:00 +15°C° 0 mm 5 m/s 746 mmHg 53%
    15:00 +15°C° 0 mm 5 m/s 746 mmHg 55%
    16:00 +15°C° 0 mm 5 m/s 746 mmHg 58%
    17:00 +15°C° 0 mm 4 m/s 746 mmHg 60%
    18:00 +13°C° 0 mm 4 m/s 746 mmHg 66%
    19:00 +11°C° 0 mm 3 m/s 746 mmHg 72%
    20:00 +9°C° 0 mm 2 m/s 746 mmHg 79%
    21:00 +9°C° 0 mm 2 m/s 746 mmHg 80%
    22:00 +8°C° 0 mm 2 m/s 746 mmHg 82%
    23:00 +8°C° 0 mm 1 m/s 746 mmHg 83%
    Mostrar mais